Time,TemperatureF,DewpointF,PressureIn,WindDirection,WindDirectionDegrees,WindSpeedMPH,WindSpeedGustMPH,Humidity,HourlyPrecipIn,Conditions,Clouds,dailyrainin,SoftwareType,DateUTC
2013-02-14 00:03:00,30.4,26.4,29.80,South,188,6.0,6.0,85,0.00,,,0.00,Wunderground v.1.15,2013-02-14 05:03:00,
2013-02-14 00:08:00,30.4,26.4,29.80,South,190,6.0,6.0,85,0.00,,,0.00,Wunderground v.1.15,2013-02-14 05:08:00,
2013-02-14 00:13:00,30.2,26.2,29.80,South,187,5.0,6.0,85,0.00,,,0.00,Wunderground v.1.15,2013-02-14 05:13:00,
2013-02-14 00:18:00,29.9,25.9,29.80,South,186,4.0,4.0,85,0.00,,,0.00,Wunderground v.1.15,2013-02-14 05:18:00,
2013-02-14 00:28:00,29.6,25.9,29.80,South,186,3.0,3.0,86,0.00,,,0.00,Wunderground v.1.15,2013-02-14 05:28:00,
2013-02-14 00:38:00,29.8,26.1,29.80,SSW,196,4.0,4.0,86,0.00,,,0.00,Wunderground v.1.15,2013-02-14 05:38:00,
2013-02-14 00:43:00,29.9,26.2,29.80,SSW,201,5.0,5.0,86,0.00,,,0.00,Wunderground v.1.15,2013-02-14 05:43:00,
2013-02-14 00:53:00,30.0,26.3,29.80,SSW,200,4.0,4.0,86,0.00,,,0.00,Wunderground v.1.15,2013-02-14 05:53:00,
2013-02-14 01:03:00,30.2,26.5,29.80,SSW,207,5.0,5.0,86,0.00,,,0.00,Wunderground v.1.15,2013-02-14 06:03:00,
2013-02-14 01:13:00,30.5,26.8,29.79,SSW,206,5.0,6.0,86,0.00,,,0.00,Wunderground v.1.15,2013-02-14 06:13:00,
2013-02-14 01:18:00,30.6,26.9,29.80,SSW,203,5.0,7.0,86,0.00,,,0.00,Wunderground v.1.15,2013-02-14 06:18:00,
2013-02-14 01:28:00,30.7,26.7,29.79,SSW,203,5.0,7.0,85,0.00,,,0.00,Wunderground v.1.15,2013-02-14 06:28:00,
2013-02-14 01:38:00,30.7,27.0,29.80,SSW,209,4.0,6.0,86,0.00,,,0.00,Wunderground v.1.15,2013-02-14 06:38:00,
2013-02-14 01:48:00,30.9,27.2,29.79,SSW,207,4.0,4.0,86,0.00,,,0.00,Wunderground v.1.15,2013-02-14 06:48:00,
2013-02-14 01:58:00,30.9,27.2,29.79,SSW,204,4.0,4.0,86,0.00,,,0.00,Wunderground v.1.15,2013-02-14 06:58:00,
2013-02-14 02:03:00,30.9,27.2,29.79,SSW,203,4.0,5.0,86,0.00,,,0.00,Wunderground v.1.15,2013-02-14 07:03:00,
2013-02-14 02:13:00,30.9,26.9,29.79,SSW,205,4.0,4.0,85,0.00,,,0.00,Wunderground v.1.15,2013-02-14 07:13:00,
2013-02-14 02:18:00,30.9,26.9,29.79,SSW,199,4.0,4.0,85,0.00,,,0.00,Wunderground v.1.15,2013-02-14 07:18:00,
2013-02-14 02:28:00,30.8,26.8,29.79,SSW,203,4.0,4.0,85,0.00,,,0.00,Wunderground v.1.15,2013-02-14 07:28:00,
2013-02-14 02:33:00,30.9,27.2,29.79,SSW,206,4.0,4.0,86,0.00,,,0.00,Wunderground v.1.15,2013-02-14 07:33:00,
2013-02-14 02:43:00,31.0,27.0,29.79,SSW,213,4.0,4.0,85,0.00,,,0.00,Wunderground v.1.15,2013-02-14 07:43:00,
2013-02-14 02:48:00,31.1,27.1,29.79,SSW,211,4.0,4.0,85,0.00,,,0.00,Wunderground v.1.15,2013-02-14 07:48:00,
2013-02-14 02:58:00,31.1,27.1,29.79,SSW,206,4.0,4.0,85,0.00,,,0.00,Wunderground v.1.15,2013-02-14 07:58:00,
2013-02-14 03:03:00,31.0,27.0,29.79,SSW,205,4.0,6.0,85,0.00,,,0.00,Wunderground v.1.15,2013-02-14 08:03:00,
2013-02-14 03:13:00,30.9,26.9,29.79,SSW,210,4.0,4.0,85,0.00,,,0.00,Wunderground v.1.15,2013-02-14 08:13:00,
2013-02-14 03:23:00,31.2,27.2,29.79,SSW,211,5.0,5.0,85,0.00,,,0.00,Wunderground v.1.15,2013-02-14 08:23:00,
2013-02-14 03:33:00,31.1,27.1,29.78,SSW,212,5.0,5.0,85,0.00,,,0.00,Wunderground v.1.15,2013-02-14 08:33:00,
2013-02-14 03:43:00,31.3,27.6,29.78,SSW,207,5.0,5.0,86,0.00,,,0.00,Wunderground v.1.15,2013-02-14 08:43:00,
2013-02-14 03:48:00,31.2,27.2,29.79,SSW,213,5.0,5.0,85,0.00,,,0.00,Wunderground v.1.15,2013-02-14 08:48:00,
2013-02-14 03:58:00,31.2,27.2,29.78,SSW,205,5.0,5.0,85,0.00,,,0.00,Wunderground v.1.15,2013-02-14 08:58:00,
2013-02-14 04:08:00,31.3,27.6,29.78,SSW,212,5.0,5.0,86,0.00,,,0.00,Wunderground v.1.15,2013-02-14 09:08:00,
2013-02-14 04:18:00,31.4,27.7,29.79,SSW,199,5.0,6.0,86,0.00,,,0.00,Wunderground v.1.15,2013-02-14 09:18:00,
2013-02-14 04:28:00,31.5,27.8,29.78,SW,217,5.0,5.0,86,0.00,,,0.00,Wunderground v.1.15,2013-02-14 09:28:00,
2013-02-14 04:38:00,31.5,27.8,29.79,SSW,209,5.0,5.0,86,0.00,,,0.00,Wunderground v.1.15,2013-02-14 09:38:00,
2013-02-14 04:48:00,31.6,27.9,29.79,SW,217,5.0,7.0,86,0.00,,,0.00,Wunderground v.1.15,2013-02-14 09:48:00,
2013-02-14 04:53:00,31.7,28.0,29.79,SW,215,6.0,7.0,86,0.00,,,0.00,Wunderground v.1.15,2013-02-14 09:53:00,
2013-02-14 04:58:00,31.8,28.1,29.79,SW,219,5.0,5.0,86,0.00,,,0.00,Wunderground v.1.15,2013-02-14 09:58:00,
2013-02-14 05:08:00,32.1,28.4,29.79,SSW,213,6.0,7.0,86,0.00,,,0.00,Wunderground v.1.15,2013-02-14 10:08:00,
2013-02-14 05:18:00,32.0,28.3,29.79,SW,215,6.0,6.0,86,0.00,,,0.00,Wunderground v.1.15,2013-02-14 10:18:00,
2013-02-14 05:23:00,32.1,28.1,29.79,SW,217,6.0,6.0,85,0.00,,,0.00,Wunderground v.1.15,2013-02-14 10:23:00,
2013-02-14 05:28:00,32.0,28.3,29.79,SSW,213,6.0,6.0,86,0.00,,,0.00,Wunderground v.1.15,2013-02-14 10:28:00,
2013-02-14 05:38:00,32.1,28.4,29.79,SSW,205,5.0,7.0,86,0.00,,,0.00,Wunderground v.1.15,2013-02-14 10:38:00,
2013-02-14 05:43:00,32.1,28.4,29.79,SSW,210,6.0,7.0,86,0.00,,,0.00,Wunderground v.1.15,2013-02-14 10:43:00,
2013-02-14 05:53:00,32.5,28.8,29.78,SW,225,6.0,11.0,86,0.00,,,0.00,Wunderground v.1.15,2013-02-14 10:53:00,
2013-02-14 06:03:00,32.7,29.0,29.78,SSW,213,7.0,7.0,86,0.00,,,0.00,Wunderground v.1.15,2013-02-14 11:03:00,
2013-02-14 06:08:00,32.8,29.1,29.78,SW,219,7.0,7.0,86,0.00,,,0.00,Wunderground v.1.15,2013-02-14 11:08:00,
2013-02-14 06:18:00,32.8,29.1,29.78,SW,215,6.0,6.0,86,0.00,,,0.00,Wunderground v.1.15,2013-02-14 11:18:00,
2013-02-14 06:28:00,33.0,29.3,29.78,SW,234,7.0,9.0,86,0.00,,,0.00,Wunderground v.1.15,2013-02-14 11:28:00,
2013-02-14 06:33:00,33.0,29.3,29.78,SW,215,7.0,9.0,86,0.00,,,0.00,Wunderground v.1.15,2013-02-14 11:33:00,
2013-02-14 06:43:00,33.2,29.5,29.79,SSW,212,7.0,8.0,86,0.00,,,0.00,Wunderground v.1.15,2013-02-14 11:43:00,
2013-02-14 06:53:00,33.2,29.5,29.78,SSW,209,6.0,7.0,86,0.00,,,0.00,Wunderground v.1.15,2013-02-14 11:53:00,
2013-02-14 07:03:00,33.1,29.4,29.78,SSW,202,6.0,7.0,86,0.00,,,0.00,Wunderground v.1.15,2013-02-14 12:03:00,
2013-02-14 07:13:00,33.0,29.6,29.78,SSW,206,6.0,6.0,87,0.00,,,0.00,Wunderground v.1.15,2013-02-14 12:13:00,
2013-02-14 07:23:00,33.1,29.7,29.79,SSW,202,7.0,9.0,87,0.00,,,0.00,Wunderground v.1.15,2013-02-14 12:23:00,
2013-02-14 07:33:00,33.0,29.6,29.79,SW,218,6.0,7.0,87,0.00,,,0.00,Wunderground v.1.15,2013-02-14 12:33:00,
2013-02-14 07:38:00,33.0,29.6,29.79,SSW,204,6.0,7.0,87,0.00,,,0.00,Wunderground v.1.15,2013-02-14 12:38:00,
2013-02-14 07:48:00,33.0,29.6,29.79,SSW,208,6.0,6.0,87,0.00,,,0.00,Wunderground v.1.15,2013-02-14 12:48:00,
2013-02-14 07:58:00,33.1,29.7,29.79,SSW,205,6.0,7.0,87,0.00,,,0.00,Wunderground v.1.15,2013-02-14 12:58:00,
2013-02-14 08:08:00,33.3,30.1,29.79,SSW,198,7.0,7.0,88,0.00,,,0.00,Wunderground v.1.15,2013-02-14 13:08:00,
2013-02-14 08:13:00,33.4,30.2,29.80,SW,219,7.0,7.0,88,0.00,,,0.00,Wunderground v.1.15,2013-02-14 13:13:00,
2013-02-14 08:23:00,33.5,30.3,29.80,SW,216,7.0,7.0,88,0.00,,,0.00,Wunderground v.1.15,2013-02-14 13:23:00,
2013-02-14 08:33:00,33.7,30.5,29.80,SSW,201,7.0,7.0,88,0.00,,,0.00,Wunderground v.1.15,2013-02-14 13:33:00,
2013-02-14 08:43:00,33.8,30.3,29.80,South,190,8.0,11.0,87,0.00,,,0.00,Wunderground v.1.15,2013-02-14 13:43:00,
2013-02-14 08:48:00,34.0,30.8,29.80,SSW,196,8.0,8.0,88,0.00,,,0.00,Wunderground v.1.15,2013-02-14 13:48:00,
2013-02-14 08:58:00,34.2,30.7,29.80,SSW,193,8.0,14.0,87,0.00,,,0.00,Wunderground v.1.15,2013-02-14 13:58:00,
2013-02-14 09:08:00,34.3,30.8,29.80,SW,224,9.0,11.0,87,0.00,,,0.00,Wunderground v.1.15,2013-02-14 14:08:00,
2013-02-14 09:18:00,34.3,31.1,29.80,SSW,204,9.0,9.0,88,0.00,,,0.00,Wunderground v.1.15,2013-02-14 14:18:00,
2013-02-14 09:28:00,34.5,31.3,29.80,SSW,206,8.0,8.0,88,0.00,,,0.00,Wunderground v.1.15,2013-02-14 14:28:00,
2013-02-14 09:38:00,34.7,31.5,29.79,SSW,198,8.0,8.0,88,0.00,,,0.00,Wunderground v.1.15,2013-02-14 14:38:00,
2013-02-14 09:48:00,35.2,32.0,29.79,SSW,193,7.0,11.0,88,0.00,,,0.00,Wunderground v.1.15,2013-02-14 14:48:00,
2013-02-14 09:53:00,35.4,32.2,29.79,SW,216,8.0,11.0,88,0.00,,,0.00,Wunderground v.1.15,2013-02-14 14:53:00,
2013-02-14 10:03:00,35.9,32.4,29.79,South,188,10.0,10.0,87,0.00,,,0.00,Wunderground v.1.15,2013-02-14 15:03:00,
2013-02-14 10:13:00,35.8,32.3,29.78,SSW,205,9.0,10.0,87,0.00,,,0.00,Wunderground v.1.15,2013-02-14 15:13:00,
2013-02-14 10:18:00,35.8,32.3,29.78,SW,215,10.0,10.0,87,0.00,,,0.00,Wunderground v.1.15,2013-02-14 15:18:00,
2013-02-14 10:28:00,35.9,32.4,29.78,SSW,204,8.0,8.0,87,0.00,,,0.00,Wunderground v.1.15,2013-02-14 15:28:00,
2013-02-14 10:38:00,36.2,32.7,29.78,South,188,9.0,15.0,87,0.00,,,0.00,Wunderground v.1.15,2013-02-14 15:38:00,
2013-02-14 10:48:00,36.4,32.6,29.77,SSW,192,10.0,13.0,86,0.00,,,0.00,Wunderground v.1.15,2013-02-14 15:48:00,
2013-02-14 10:58:00,36.5,32.7,29.77,South,171,10.0,12.0,86,0.00,,,0.00,Wunderground v.1.15,2013-02-14 15:58:00,
2013-02-14 11:08:00,36.7,32.9,29.77,South,189,9.0,15.0,86,0.00,,,0.00,Wunderground v.1.15,2013-02-14 16:08:00,
2013-02-14 11:18:00,37.0,33.2,29.76,South,182,10.0,10.0,86,0.00,,,0.00,Wunderground v.1.15,2013-02-14 16:18:00,
2013-02-14 11:28:00,37.6,33.5,29.76,South,174,10.0,12.0,85,0.00,,,0.00,Wunderground v.1.15,2013-02-14 16:28:00,
2013-02-14 11:38:00,38.2,33.8,29.76,South,177,11.0,11.0,84,0.00,,,0.00,Wunderground v.1.15,2013-02-14 16:38:00,
2013-02-14 11:43:00,38.1,33.4,29.75,South,185,13.0,18.0,83,0.00,,,0.00,Wunderground v.1.15,2013-02-14 16:43:00,
2013-02-14 11:53:00,38.1,33.7,29.76,South,182,13.0,16.0,84,0.00,,,0.00,Wunderground v.1.15,2013-02-14 16:53:00,
2013-02-14 12:03:00,38.8,34.1,29.75,South,186,11.0,14.0,83,0.00,,,0.00,Wunderground v.1.15,2013-02-14 17:03:00,
2013-02-14 12:13:00,39.5,34.5,29.75,SSW,192,13.0,15.0,82,0.00,,,0.00,Wunderground v.1.15,2013-02-14 17:13:00,
2013-02-14 12:23:00,40.2,35.1,29.74,South,181,15.0,18.0,82,0.00,,,0.00,Wunderground v.1.15,2013-02-14 17:23:00,
2013-02-14 12:33:00,40.1,34.7,29.74,South,176,14.0,14.0,81,0.00,,,0.00,Wunderground v.1.15,2013-02-14 17:33:00,
2013-02-14 12:38:00,40.2,35.1,29.74,SSE,167,14.0,14.0,82,0.00,,,0.00,Wunderground v.1.15,2013-02-14 17:38:00,
2013-02-14 12:43:00,40.4,35.0,29.74,South,184,14.0,18.0,81,0.00,,,0.00,Wunderground v.1.15,2013-02-14 17:43:00,
2013-02-14 12:53:00,40.7,35.3,29.73,SSW,198,14.0,14.0,81,0.00,,,0.00,Wunderground v.1.15,2013-02-14 17:53:00,
2013-02-14 13:03:00,41.1,35.4,29.73,SSW,198,11.0,12.0,80,0.00,,,0.00,Wunderground v.1.15,2013-02-14 18:03:00,
2013-02-14 13:08:00,41.0,35.3,29.73,SSW,193,12.0,12.0,80,0.00,,,0.00,Wunderground v.1.15,2013-02-14 18:08:00,
2013-02-14 13:18:00,40.6,34.9,29.73,SSW,209,14.0,14.0,80,0.00,,,0.00,Wunderground v.1.15,2013-02-14 18:18:00,
2013-02-14 13:28:00,40.2,34.5,29.73,SSW,198,14.0,16.0,80,0.00,,,0.00,Wunderground v.1.15,2013-02-14 18:28:00,
2013-02-14 13:38:00,40.3,34.9,29.72,SSW,197,12.0,13.0,81,0.00,,,0.00,Wunderground v.1.15,2013-02-14 18:38:00,
2013-02-14 13:43:00,40.1,34.7,29.72,South,180,12.0,13.0,81,0.00,,,0.00,Wunderground v.1.15,2013-02-14 18:43:00,
2013-02-14 13:53:00,39.8,34.8,29.72,SSW,202,14.0,17.0,82,0.00,,,0.00,Wunderground v.1.15,2013-02-14 18:53:00,
2013-02-14 14:03:00,39.4,34.7,29.72,SSW,207,12.0,14.0,83,0.00,,,0.00,Wunderground v.1.15,2013-02-14 19:03:00,
2013-02-14 14:13:00,39.1,34.7,29.72,SSW,196,13.0,13.0,84,0.00,,,0.00,Wunderground v.1.15,2013-02-14 19:13:00,
2013-02-14 14:18:00,39.1,35.0,29.72,SSW,200,13.0,14.0,85,0.00,,,0.00,Wunderground v.1.15,2013-02-14 19:18:00,
2013-02-14 14:28:00,39.1,35.0,29.71,SSW,202,11.0,11.0,85,0.00,,,0.00,Wunderground v.1.15,2013-02-14 19:28:00,
2013-02-14 14:38:00,39.3,34.9,29.71,South,191,12.0,15.0,84,0.00,,,0.00,Wunderground v.1.15,2013-02-14 19:38:00,
2013-02-14 14:48:00,39.5,35.1,29.70,SSW,200,12.0,12.0,84,0.00,,,0.00,Wunderground v.1.15,2013-02-14 19:48:00,
2013-02-14 14:53:00,39.7,35.3,29.70,South,184,11.0,12.0,84,0.00,,,0.00,Wunderground v.1.15,2013-02-14 19:53:00,
2013-02-14 15:03:00,40.0,35.6,29.71,SW,217,12.0,14.0,84,0.00,,,0.00,Wunderground v.1.15,2013-02-14 20:03:00,
2013-02-14 15:13:00,39.8,35.7,29.71,South,178,11.0,11.0,85,0.00,,,0.00,Wunderground v.1.15,2013-02-14 20:13:00,
2013-02-14 15:18:00,39.8,35.4,29.71,South,185,10.0,18.0,84,0.00,,,0.00,Wunderground v.1.15,2013-02-14 20:18:00,
2013-02-14 15:28:00,40.0,35.6,29.71,SSW,192,11.0,13.0,84,0.00,,,0.00,Wunderground v.1.15,2013-02-14 20:28:00,
2013-02-14 15:33:00,40.1,35.7,29.71,SW,217,11.0,13.0,84,0.00,,,0.00,Wunderground v.1.15,2013-02-14 20:33:00,
2013-02-14 15:38:00,40.2,35.8,29.71,SW,217,11.0,14.0,84,0.00,,,0.00,Wunderground v.1.15,2013-02-14 20:38:00,
2013-02-14 15:48:00,40.4,35.9,29.71,SSW,192,10.0,15.0,84,0.00,,,0.00,Wunderground v.1.15,2013-02-14 20:48:00,
2013-02-14 15:53:00,40.6,35.8,29.71,SSW,200,10.0,15.0,83,0.00,,,0.00,Wunderground v.1.15,2013-02-14 20:53:00,
2013-02-14 16:03:00,40.5,36.0,29.71,SSW,201,8.0,9.0,84,0.00,,,0.00,Wunderground v.1.15,2013-02-14 21:03:00,
2013-02-14 16:08:00,40.5,35.7,29.71,SW,227,9.0,9.0,83,0.00,,,0.00,Wunderground v.1.15,2013-02-14 21:08:00,
2013-02-14 16:13:00,40.6,36.1,29.71,SSW,205,9.0,9.0,84,0.00,,,0.00,Wunderground v.1.15,2013-02-14 21:13:00,
2013-02-14 16:22:00,40.5,36.0,29.71,South,191,9.0,10.0,84,0.00,,,0.00,Wunderground v.1.15,2013-02-14 21:22:00,
2013-02-14 16:27:00,40.5,36.0,29.71,SSW,212,9.0,9.0,84,0.00,,,0.00,Wunderground v.1.15,2013-02-14 21:27:00,
2013-02-14 16:37:00,40.8,36.3,29.71,SSW,207,10.0,10.0,84,0.00,,,0.00,Wunderground v.1.15,2013-02-14 21:37:00,
2013-02-14 16:42:00,40.8,36.3,29.71,SSW,205,10.0,10.0,84,0.00,,,0.00,Wunderground v.1.15,2013-02-14 21:42:00,
2013-02-14 16:52:00,40.9,36.1,29.71,SW,216,9.0,9.0,83,0.00,,,0.00,Wunderground v.1.15,2013-02-14 21:52:00,
2013-02-14 17:02:00,41.2,36.4,29.71,SW,219,9.0,11.0,83,0.00,,,0.00,Wunderground v.1.15,2013-02-14 22:02:00,
2013-02-14 17:07:00,41.5,36.1,29.72,WSW,245,11.0,16.0,81,0.00,,,0.00,Wunderground v.1.15,2013-02-14 22:07:00,
2013-02-14 17:12:00,41.6,35.9,29.72,WSW,243,14.0,16.0,80,0.00,,,0.00,Wunderground v.1.15,2013-02-14 22:12:00,
2013-02-14 17:22:00,41.3,34.0,29.73,WSW,245,20.0,24.0,75,0.00,,,0.00,Wunderground v.1.15,2013-02-14 22:22:00,
2013-02-14 17:32:00,41.1,32.8,29.73,WSW,244,23.0,23.0,72,0.00,,,0.00,Wunderground v.1.15,2013-02-14 22:32:00,
2013-02-14 17:42:00,40.6,32.6,29.74,WSW,241,21.0,23.0,73,0.00,,,0.00,Wunderground v.1.15,2013-02-14 22:42:00,
2013-02-14 17:52:00,40.2,32.6,29.75,SW,229,19.0,20.0,74,0.00,,,0.00,Wunderground v.1.15,2013-02-14 22:52:00,
2013-02-14 18:02:00,40.0,32.0,29.75,WSW,242,20.0,23.0,73,0.00,,,0.00,Wunderground v.1.15,2013-02-14 23:02:00,
2013-02-14 18:12:00,39.6,32.0,29.76,WSW,257,20.0,21.0,74,0.00,,,0.00,Wunderground v.1.15,2013-02-14 23:12:00,
2013-02-14 18:22:00,39.1,32.2,29.77,WSW,244,16.0,21.0,76,0.00,,,0.00,Wunderground v.1.15,2013-02-14 23:22:00,
2013-02-14 18:32:00,38.9,31.6,29.77,WSW,250,16.0,18.0,75,0.00,,,0.00,Wunderground v.1.15,2013-02-14 23:32:00,
2013-02-14 18:42:00,38.8,31.2,29.78,WSW,247,15.0,16.0,74,0.00,,,0.00,Wunderground v.1.15,2013-02-14 23:42:00,
2013-02-14 18:52:00,38.6,31.0,29.78,WSW,250,15.0,15.0,74,0.00,,,0.00,Wunderground v.1.15,2013-02-14 23:52:00,
2013-02-14 18:57:00,38.6,31.4,29.79,WSW,252,15.0,15.0,75,0.00,,,0.00,Wunderground v.1.15,2013-02-14 23:57:00,
2013-02-14 19:02:00,38.5,30.9,29.79,WSW,242,15.0,15.0,74,0.00,,,0.00,Wunderground v.1.15,2013-02-15 00:02:00,
2013-02-14 19:12:00,38.4,30.8,29.79,WSW,250,15.0,15.0,74,0.00,,,0.00,Wunderground v.1.15,2013-02-15 00:12:00,
2013-02-14 19:22:00,38.4,30.8,29.79,WSW,245,15.0,21.0,74,0.00,,,0.00,Wunderground v.1.15,2013-02-15 00:22:00,
2013-02-14 19:32:00,38.2,31.0,29.80,SW,223,15.0,16.0,75,0.00,,,0.00,Wunderground v.1.15,2013-02-15 00:32:00,
2013-02-14 19:42:00,38.1,30.9,29.80,WSW,245,14.0,19.0,75,0.00,,,0.00,Wunderground v.1.15,2013-02-15 00:42:00,
2013-02-14 19:52:00,38.1,30.9,29.80,WSW,242,14.0,16.0,75,0.00,,,0.00,Wunderground v.1.15,2013-02-15 00:52:00,
2013-02-14 19:57:00,38.0,31.1,29.80,WSW,244,14.0,17.0,76,0.00,,,0.00,Wunderground v.1.15,2013-02-15 00:57:00,
2013-02-14 20:02:00,38.0,31.1,29.80,SW,234,13.0,17.0,76,0.00,,,0.00,Wunderground v.1.15,2013-02-15 01:02:00,
2013-02-14 20:07:00,38.0,30.8,29.80,WSW,252,14.0,14.0,75,0.00,,,0.00,Wunderground v.1.15,2013-02-15 01:07:00,
2013-02-14 20:17:00,38.0,31.1,29.81,WSW,244,16.0,16.0,76,0.00,,,0.00,Wunderground v.1.15,2013-02-15 01:17:00,
2013-02-14 20:22:00,38.1,30.9,29.81,WSW,248,16.0,22.0,75,0.00,,,0.00,Wunderground v.1.15,2013-02-15 01:22:00,
2013-02-14 20:27:00,38.2,31.0,29.81,WSW,254,18.0,18.0,75,0.00,,,0.00,Wunderground v.1.15,2013-02-15 01:27:00,
2013-02-14 20:32:00,38.1,31.2,29.81,WSW,252,17.0,18.0,76,0.00,,,0.00,Wunderground v.1.15,2013-02-15 01:32:00,
2013-02-14 20:37:00,38.2,31.0,29.82,WSW,246,17.0,17.0,75,0.00,,,0.00,Wunderground v.1.15,2013-02-15 01:37:00,
2013-02-14 20:42:00,38.0,30.8,29.82,West,262,17.0,19.0,75,0.00,,,0.00,Wunderground v.1.15,2013-02-15 01:42:00,
2013-02-14 20:52:00,38.1,30.9,29.83,West,263,19.0,19.0,75,0.00,,,0.00,Wunderground v.1.15,2013-02-15 01:52:00,
2013-02-14 21:02:00,37.8,30.3,29.84,West,267,17.0,20.0,74,0.00,,,0.00,Wunderground v.1.15,2013-02-15 02:02:00,
2013-02-14 21:07:00,37.5,29.6,29.84,WSW,254,17.0,20.0,73,0.00,,,0.00,Wunderground v.1.15,2013-02-15 02:07:00,
2013-02-14 21:12:00,37.3,29.4,29.84,West,259,19.0,20.0,73,0.00,,,0.00,Wunderground v.1.15,2013-02-15 02:12:00,
2013-02-14 21:17:00,37.2,29.3,29.85,WSW,251,19.0,19.0,73,0.00,,,0.00,Wunderground v.1.15,2013-02-15 02:17:00,
2013-02-14 21:22:00,37.0,29.5,29.84,West,278,17.0,21.0,74,0.00,,,0.00,Wunderground v.1.15,2013-02-15 02:22:00,
2013-02-14 21:27:00,36.8,29.3,29.85,WSW,254,16.0,18.0,74,0.00,,,0.00,Wunderground v.1.15,2013-02-15 02:27:00,
2013-02-14 21:32:00,36.8,29.0,29.85,West,261,16.0,19.0,73,0.00,,,0.00,Wunderground v.1.15,2013-02-15 02:32:00,
2013-02-14 21:42:00,36.7,28.5,29.85,West,260,17.0,18.0,72,0.00,,,0.00,Wunderground v.1.15,2013-02-15 02:42:00,
2013-02-14 21:47:00,36.7,28.5,29.85,WSW,255,18.0,18.0,72,0.00,,,0.00,Wunderground v.1.15,2013-02-15 02:47:00,
2013-02-14 21:52:00,36.5,28.7,29.85,WSW,243,17.0,18.0,73,0.00,,,0.00,Wunderground v.1.15,2013-02-15 02:52:00,
2013-02-14 22:02:00,36.1,27.9,29.84,WSW,258,16.0,24.0,72,0.00,,,0.00,Wunderground v.1.15,2013-02-15 03:02:00,
2013-02-14 22:07:00,36.2,27.7,29.85,WSW,253,16.0,16.0,71,0.00,,,0.00,Wunderground v.1.15,2013-02-15 03:07:00,
2013-02-14 22:12:00,36.2,27.7,29.85,West,260,17.0,25.0,71,0.00,,,0.00,Wunderground v.1.15,2013-02-15 03:12:00,
2013-02-14 22:22:00,36.2,28.0,29.85,West,266,16.0,16.0,72,0.00,,,0.00,Wunderground v.1.15,2013-02-15 03:22:00,
2013-02-14 22:32:00,36.3,27.4,29.85,WSW,257,15.0,18.0,70,0.00,,,0.00,Wunderground v.1.15,2013-02-15 03:32:00,
2013-02-14 22:37:00,36.3,27.4,29.85,WSW,250,16.0,18.0,70,0.00,,,0.00,Wunderground v.1.15,2013-02-15 03:37:00,
2013-02-14 22:42:00,36.2,27.4,29.86,WSW,253,16.0,18.0,70,0.00,,,0.00,Wunderground v.1.15,2013-02-15 03:42:00,
2013-02-14 22:47:00,36.0,27.5,29.86,West,261,15.0,15.0,71,0.00,,,0.00,Wunderground v.1.15,2013-02-15 03:47:00,
2013-02-14 22:52:00,36.0,27.2,29.86,West,261,14.0,15.0,70,0.00,,,0.00,Wunderground v.1.15,2013-02-15 03:52:00,
2013-02-14 22:57:00,36.0,27.5,29.86,WSW,254,15.0,18.0,71,0.00,,,0.00,Wunderground v.1.15,2013-02-15 03:57:00,
2013-02-14 23:02:00,36.0,27.2,29.86,WSW,255,16.0,18.0,70,0.00,,,0.00,Wunderground v.1.15,2013-02-15 04:02:00,
2013-02-14 23:07:00,35.9,27.1,29.87,West,261,16.0,16.0,70,0.00,,,0.00,Wunderground v.1.15,2013-02-15 04:07:00,
2013-02-14 23:12:00,35.8,27.0,29.87,West,263,14.0,16.0,70,0.00,,,0.00,Wunderground v.1.15,2013-02-15 04:12:00,
2013-02-14 23:17:00,35.9,26.7,29.87,WSW,255,15.0,15.0,69,0.00,,,0.00,Wunderground v.1.15,2013-02-15 04:17:00,
2013-02-14 23:22:00,35.8,26.6,29.87,West,281,17.0,19.0,69,0.00,,,0.00,Wunderground v.1.15,2013-02-15 04:22:00,
2013-02-14 23:27:00,35.7,26.5,29.87,West,259,16.0,17.0,69,0.00,,,0.00,Wunderground v.1.15,2013-02-15 04:27:00,
2013-02-14 23:37:00,35.5,27.0,29.87,WSW,256,14.0,14.0,71,0.00,,,0.00,Wunderground v.1.15,2013-02-15 04:37:00,
2013-02-14 23:42:00,35.3,27.2,29.87,WSW,242,13.0,17.0,72,0.00,,,0.00,Wunderground v.1.15,2013-02-15 04:42:00,
2013-02-14 23:47:00,35.2,27.1,29.87,West,262,13.0,18.0,72,0.00,,,0.00,Wunderground v.1.15,2013-02-15 04:47:00,
2013-02-14 23:57:00,35.2,27.1,29.87,West,267,15.0,15.0,72,0.00,,,0.00,Wunderground v.1.15,2013-02-15 04:57:00,